Regional Weather Roundup
Issued by NWS Charleston, SC

Current Version | Previous Version | Graphics & Text | Print | Product List | Glossary On
Versions: 1 2 3 4 5 6 7 8 9 10 11 12 13 14 15 16 17 18 19 20 21 22 23 24 25 26 27 28 29 30 31 32 33 34 35 36 37 38 39 40 41 42 43 44 45 46 47 48 49 50
000
ASUS42 KCHS 300128
RWRCHS

REGIONAL WEATHER ROUNDUP
NATIONAL WEATHER SERVICE CHARLESTON SC
900 PM EDT SUN MAY 29 2016

NOTE: "FAIR" INDICATES FEW OR NO CLOUDS BELOW 12,000 FEET WITH NO
SIGNIFICANT WEATHER AND/OR OBSTRUCTIONS TO VISIBILITY.

NOT ALL STATIONS ARE QUALITY CONTROLLED. USE DATA WITH CAUTION...
ESPECIALLY DEWPOINT OBSERVATIONS.

SCZ027-030-031-034>040-042>050-300200-
...SOUTHEAST SOUTH CAROLINA...

CITY           SKY/WX    TMP DP  RH WIND       PRES   REMARKS
N CHARLESTON   CLOUDY    73  66  78 NE5       29.90S
WATERFRONT PRK   N/A     72  68  87 NE6       29.87S
MOUNT PLEASANT CLOUDY    72  70  94 CALM      29.91S
JOHNS ISLAND   CLOUDY    72  68  88 CALM      29.91R
PINOPOLIS        N/A     73  70  88 SE6       29.84R
MONCKS CORNER  CLOUDY    66  64  94 CALM      29.92S
SUMMERVILLE    NOT AVBL
BEAUFORT MCAS  CLOUDY    73  69  87 NW9       29.92S
BEAUFORT ARPT  CLOUDY    70  68  94 W8        29.92S
HILTON HEAD IS DRIZZLE   68  68 100 W8G18     29.95R
WALTERBORO     LGT RAIN  72  72 100 NW5       29.93S
ALLENDALE      CLOUDY    68  68 100 CALM      29.96R

...SOUTHERN MIDLANDS AND PEE DEE...

CITY           SKY/WX    TMP DP  RH WIND       PRES   REMARKS
GEORGETOWN     CLOUDY    70  68  94 CALM      29.95R
KINGSTREE      DRIZZLE   70  68  94 NE5       29.93S
ORANGEBURG     MOCLDY    72  68  87 N8        29.95S
BARNWELL       FAIR      72  72 100 CALM      29.98R
AIKEN          CLOUDY    72  63  73 NW6       30.02S
MANNING        RAIN      70  68  94 N6        29.93S
COLUMBIA       CLOUDY    75  65  70 N7        29.96S
SUMTER         CLOUDY    70  68  94 N13       29.93S
FLORENCE       LGT RAIN  76  68  76 E9        29.96R
MYRTLE BEACH   NOT AVBL
N MYRTLE BEACH CLOUDY    76  69  79 SE7       29.95F

$$

GAZ063-065-086>088-099>101-113>116-118-119-134>141-150-300200-
...SOUTHEAST GEORGIA...

CITY           SKY/WX    TMP DP  RH WIND       PRES   REMARKS
SAVANNAH ARPT  CLOUDY    70  63  78 W13       29.97R
HUNTER AAF     CLEAR     69  67  95 W6        29.94S
FORT STEWART   CLOUDY    75  61  62 W6        29.96S
STATESBORO     CLOUDY    70  67  92 NW6       29.98S
SYLVANIA       DRIZZLE   70  67  92 NW7       29.99S
CLAXTON        FAIR      70  67  89 SW3       29.99S

...CSRA...CENTRAL AND FAR SOUTHEAST GEORGIA...

CITY           SKY/WX    TMP DP  RH WIND       PRES   REMARKS
THOMSON        MOCLDY    70  67  89 CALM      30.08R
AUGUSTA-BUSH   CLOUDY    73  64  73 NW9       29.98R
AUGUSTA-DANIEL PTCLDY    73  63  70 NW7       30.00R
SWAINSBORO     CLOUDY    73  63  68 NW6       30.02R
VIDALIA        MOCLDY    73  61  64 W3        30.01S
EASTMAN        MOCLDY    75  65  71 NE3       30.04S
HAZLEHURST     FAIR      78  62  58 CALM      30.01R
ALMA           CLEAR     74  62  66 CALM      30.00S
WAYCROSS       CLEAR     77  64  64 CALM      30.01R
JESUP          FAIR      72  55  56 NW5       30.00R
BAXLEY         FAIR      77  63  61 NW3       30.01R
BRUNSWICK      CLEAR     81  61  50 CALM      30.00R
SAINT SIMONS   CLEAR     79  58  48 NW6       29.98R

$$

SCZ027-028-034-036>038-045-046-048>050-GAZ119-141-300200-
...LAKE AND SUPPLEMENTAL COASTAL OBSERVATIONS...

STATION/POSITION TIME  TEMP    WIND        PRES    WAVE   SWELL
                       AIR SEA DIR/SP/G            HT/PER HT/PER/DIR
                 (UTC) (F)     (DEG/KT/KT) (MB)    (FT/S) (FT/S/D)
WINYAH BAY       0045   72     180/  5     1013.0S
LAKE MURRAY      0000   75      30/  1/  6 1014.6R
ACE BASIN NERRS  0000   70     330/  3     1012.0S
FORT PULASKI     0100      75              1014.6R
SAPELO ISLAND    0100   77     300/  7     1015.0S

$$

ANZ835-935-AMZ111-154-330-350-352-354-370-450-454-472-300200-
...C-MAN AND BUOY OBSERVATIONS...

STATION/POSITION TIME  TEMP    WIND        PRES    WAVE   SWELL
                       AIR SEA DIR/SP/G            HT/PER HT/PER/DIR
                 (UTC) (F)     (DEG/KT/KT) (MB)    (FT/S) (FT/S/D)
BUOY 41004       0050   73 78  190/ 14/ 16 1012.9R   6/ 6   3/ 8
BUOY 41008       0050   77 76  300/ 16/ 17 1014.7    3/ 4   2/ 90/ 8
FOLLY BEACH CMAN 0100   71      60/  7/  8 1012.5R
CAPERS NEARSHORE 0008   72 76  180/ 10/ 14 1012.6R
FRIPP NEARSHORE  0108   71 75  290/ 19/ 25 1012.3R


STATION/POSITION TIME  TEMP    WIND        PRES    WAVE   SWELL
                       AIR SEA DIR/SP/G            HT/PER HT/PER/DIR
                 (UTC) (F)     (DEG/KT/KT) (MB)    (FT/S) (FT/S/D)
5E ST. MARYS GA  0101      79                N/A     2/ 8
FRYING PAN BUOY  0100   78 79  170/ 14/ 17 1014.6S
BUOY 41025       0050   78 82  170/ 21/ 25 1017.1S   5/ 8   2/150/ 9
CAPE LOOKOUT NC  0100   76     150/ 10/ 11 1016.6R
BUOY 41002       0050   76 76  130/ 14/ 17 1018.2R   5/ 8   3/110/ 8
BUOY 41010       0020   78 79   70/  4/  6 1016.7F
ST AUGUSTINE FL  0100   79 81  170/ 13/ 14 1017.2R


$$




USA.gov is the U.S. government's official web portal to all federal, state and local government web resources and services.